RH
96 96 96 96 96 96 96 95 95 96 96 96 96 96 92 90 89 89 92 90 89 91 91 91 91 92 92 92 92 92 94 96
98 97 97 97 97 99 98 97 97 96 97 98 98 97 94 92 90 87 91 93 89 89 92 92 92 94 91 91 94 93 94 96
99 94 98 99 98 97 98 98 98 98 97 98 100 98 96 94 92 89 89 93 91 89 92 93 94 93 91 90 94 96 96 96
99 95 94 96 97 93 95 98 97 97 97 97 94 96 97 93 91 90 88 90 92 90 91 94 95 98 96 92 97 91 94 94
98 98 92 92 94 87 85 95 89 90 90 91 92 96 99 99 98 96 96 92 98 96 97 98 98 98 98 97 93 92 92 96
93 98 92 92 97 90 82 88 86 89 92 92 92 96 99 99 99 98 98 99 98 99 99 98 97 96 96 93 93 95 98 98
94 97 97 90 95 94 90 88 86 88 94 94 92 94 95 99 98 99 98 99 98 95 98 97 98 97 97 90 94 93 93 98
88 96 96 95 97 96 88 84 87 86 88 94 92 92 91 93 99 99 99 99 99 99 96 96 99 98 97 91 91 91 91 96
87 88 92 97 96 96 95 91 90 82 83 88 95 93 95 93 94 99 98 99 98 98 97 96 99 98 96 94 92 90 95 96
79 80 91 93 94 95 94 93 86 86 82 80 78 86 92 95 93 93 98 96 97 96 95 98 99 99 99 97 91 91 94 96
64 88 92 92 91 93 94 88 84 80 81 82 81 81 90 94 93 92 95 95 96 95 96 98 98 99 99 98 96 92 96 94
44 82 90 91 92 94 95 94 92 89 88 85 87 87 91 96 96 95 94 96 97 96 96 97 98 98 98 98 97 98 98 98
40 75 91 94 94 96 97 96 96 96 92 89 88 86 90 93 95 96 96 96 94 94 96 98 99 98 98 99 98 98 99 99
48 52 84 92 88 88 93 93 95 94 95 94 93 92 92 92 93 95 95 95 97 98 98 99 98 96 97 95 99 99 98 97
77 66 78 90 87 94 99 98 99 99 99 97 97 94 94 94 93 94 95 96 96 98 98 96 97 97 90 94 98 96 98 98
93 97 87 96 96 93 96 97 99 98 96 97 98 97 94 93 93 94 94 95 97 97 97 96 94 97 94 82 85 91 96 99
94 95 94 91 90 94 97 96 97 99 99 99 99 99 98 92 94 93 95 95 95 96 97 96 94 93 90 92 93 87 87 95
94 92 94 88 90 93 93 95 96 98 99 100 99 94 97 95 93 91 94 94 94 95 94 94 94 92 92 85 84 87 87 83
92 92 92 94 92 93 95 94 94 93 96 99 98 97 95 93 93 94 94 93 92 92 94 96 95 95 94 91 85 80 80 74
89 87 87 82 80 85 86 89 96 98 97 98 99 98 98 97 98 95 93 92 92 93 95 95 94 96 94 94 91 89 82 73
Wind_Speed
9 10 11 14 14 14 14 16 16 15 15 15 14 15 14 12 11 10 11 12 12 12 12 12 13 11 8 10 11 11 5 4
4 6 7 8 10 13 13 13 13 14 14 13 12 13 13 12 11 10 11 12 12 12 11 11 11 10 12 12 11 13 5 4
6 9 5 5 6 10 11 11 11 10 11 12 10 7 8 9 8 11 11 12 12 11 10 9 9 9 8 11 12 3 4 3
7 9 10 8 5 9 8 7 7 7 7 9 8 8 7 7 7 10 11 10 12 12 10 8 7 4 3 6 2 3 6 4
4 7 10 11 8 8 6 4 6 6 10 9 7 5 4 3 3 3 3 7 4 6 5 4 4 3 3 2 2 3 3 5
4 4 9 10 5 7 8 7 7 6 7 9 7 4 4 3 3 4 3 3 5 5 3 5 5 5 5 4 3 3 2 2
9 8 9 11 10 7 8 10 9 8 7 8 7 6 6 3 3 4 4 4 5 6 5 4 5 5 5 5 5 5 6 2
16 14 12 11 11 10 9 9 9 9 8 8 10 7 6 6 4 4 4 4 4 4 6 5 4 4 5 6 5 3 5 5
14 19 18 14 13 10 7 8 8 10 10 12 12 11 9 9 6 4 4 4 5 4 4 4 4 4 4 4 4 4 4 4
9 10 15 17 14 10 8 8 8 8 9 9 14 10 11 9 8 7 5 5 5 4 4 6 5 5 4 4 4 4 4 5
11 13 17 20 16 11 10 11 9 9 9 9 14 13 10 9 8 8 9 7 7 7 6 5 5 4 4 4 4 4 5 3
11 12 17 18 12 9 8 8 9 10 11 12 12 11 12 9 7 9 9 8 8 8 8 6 4 6 4 3 3 3 4 4
10 13 17 12 12 12 11 12 11 10 10 13 16 15 14 13 8 9 10 11 12 11 9 9 3 6 4 3 1 3 4 4
9 15 16 16 14 12 7 9 8 9 8 12 14 15 16 13 13 11 12 10 11 12 10 5 3 9 4 4 3 1 3 5
9 11 14 14 14 9 6 5 1 3 4 7 10 13 13 15 15 11 12 10 10 12 12 14 9 8 10 6 4 4 2 3
7 8 12 8 11 10 13 10 6 5 6 7 8 11 14 14 13 13 12 9 10 11 10 12 10 11 8 6 2 6 4 3
2 10 8 7 8 11 6 3 3 3 4 6 7 5 7 12 12 13 12 10 11 12 12 13 11 9 11 9 3 2 3 4
5 10 12 10 11 7 8 7 5 1 5 3 4 6 6 10 11 12 11 12 13 11 13 14 12 10 10 10 12 8 5 4
6 5 10 12 14 13 6 9 6 3 2 4 3 3 4 8 9 11 10 12 13 12 13 14 13 12 12 11 10 11 4 7
10 10 11 11 13 14 11 9 5 4 3 2 1 3 3 4 6 10 13 13 13 13 11 12 14 13 15 13 9 9 9 8
Wind_Direction
161 177 184 177 173 169 165 162 162 163 162 163 158 152 157 159 158 155 152 141 140 142 143 139 143 133 127 140 139 134 126 133
141 166 180 181 180 167 163 162 165 165 164 165 159 155 162 165 167 165 158 151 152 148 148 148 145 142 148 154 140 130 131 140
152 181 172 167 179 175 159 158 163 162 165 167 155 162 166 169 170 173 166 156 155 152 152 155 145 143 153 141 145 134 139 149
166 179 183 171 168 179 170 167 171 171 176 175 176 170 169 163 170 169 169 163 150 153 161 141 136 134 154 139 107 147 146 154
224 173 182 181 176 178 180 177 179 185 185 185 178 163 159 150 145 161 157 158 143 141 148 135 131 134 161 104 142 140 200 141
215 264 194 190 170 179 176 180 184 190 193 182 178 165 156 158 151 159 155 153 141 133 155 138 152 153 150 161 172 171 119 80
191 189 211 197 187 180 184 187 187 185 176 186 172 178 170 149 155 152 159 150 158 164 148 164 152 152 158 165 176 168 141 162
184 189 198 199 195 188 187 187 186 184 185 186 180 176 177 171 160 169 169 161 152 147 159 182 158 155 168 184 186 174 147 156
192 188 184 198 202 187 186 195 182 191 194 183 179 176 176 172 172 179 183 155 145 145 147 176 154 159 174 159 156 142 129 155
203 199 192 191 196 193 186 186 190 192 196 199 200 188 174 174 177 184 173 174 167 180 171 190 170 172 156 171 160 134 157 157
223 197 193 196 194 188 184 181 193 199 194 194 201 206 188 175 182 181 173 185 187 186 191 185 175 165 162 168 163 159 155 157
229 207 202 195 186 178 182 184 196 195 195 200 190 195 192 178 178 178 183 187 191 188 186 183 183 167 146 144 150 141 147 164
219 199 206 185 188 183 189 193 193 196 198 198 195 197 191 190 188 182 190 196 198 189 187 184 177 156 111 110 99 166 180 172
230 211 197 193 186 189 189 191 207 200 190 193 196 198 190 184 195 192 194 203 195 187 182 170 158 174 147 119 161 153 212 191
224 206 203 194 188 162 119 116 124 151 198 194 214 195 192 188 197 194 191 197 203 190 190 186 176 184 176 147 161 197 142 179
206 150 179 148 156 169 170 169 164 170 199 165 223 215 202 198 200 198 197 189 197 193 199 199 189 184 187 199 187 143 168 165
215 112 102 124 139 164 151 197 121 122 150 155 176 208 228 213 207 204 199 192 203 195 190 203 196 184 189 182 153 173 127 136
341 109 106 102 99 57 113 139 113 39 137 168 181 205 207 219 215 213 206 202 200 196 196 203 199 199 186 196 195 178 178 160
70 9 77 103 86 73 343 68 65 103 140 148 188 198 203 226 221 217 212 208 207 202 199 199 199 205 191 199 200 204 175 196
63 52 49 45 57 85 43 14 14 5 14 52 266 249 209 225 221 224 215 206 207 204 201 203 201 205 202 198 200 206 200 192